Regional Weather Roundup
Issued by NWS Green Bay, WI

Home | Current Version | Previous Version | Graphics & Text | Print | Product List | Glossary Off
Versions: 1 2 3 4 5 6 7 8 9 10 11 12 13 14 15 16 17 18 19 20 21 22 23 24 25 26 27 28 29 30 31 32 33 34 35 36 37 38 39 40 41 42 43 44 45 46 47 48 49 50

000
ASUS43 KGRB 250411
RWRGRB

NORTH-CENTRAL AND NORTHEAST WISCONSIN REGIONAL WEATHER ROUNDUP
NATIONAL WEATHER SERVICE GREEN BAY WI
1100 PM CDT FRI MAR 24 2017

WIZ005-009-010>012-018-019-250500-
NORTH CENTRAL WISCONSIN

CITY           SKY/WX    TMP DP  RH WIND       PRES   REMARKS
IRONWOOD       CLOUDY    33  31  92 E6        30.23S
MANITOWISH WTR CLOUDY    32  32 100 NE7       30.19F FOG
ARBOR VITAE    CLOUDY    37  35  94 NE3       30.18F FOG
EAGLE RIVER    CLOUDY    33  32  98 NE8       30.18S
LAND O LAKES   CLOUDY    33  32  97 NE6       30.21F
RHINELANDER    CLOUDY    35  32  88 VRB7      30.18F
PHILLIPS       CLOUDY    33  31  93 NE9       30.17F
ANTIGO         CLOUDY    33  32  96 NE14      30.16F
TOMAHAWK       CLOUDY    34  31  91 NE5       30.17F
MERRILL        CLOUDY    35  33  92 NE10G16   30.17S
$$

WIZ013-073-250500-
NORTHEAST WISCONSIN

CITY           SKY/WX    TMP DP  RH WIND       PRES   REMARKS
IRON MOUNTAIN  CLOUDY    34  29  82 NE6       30.20R
MARINETTE        N/A    N/A N/A N/A MISG        N/A
OCONTO         CLOUDY    35  33  92 NE9G17    30.18F
$$

WIZ017-030-035>037-045-250500-
CENTRAL WISCONSIN

CITY           SKY/WX    TMP DP  RH WIND       PRES   REMARKS
MEDFORD        CLOUDY    34  32  92 NE10      30.15S
WAUSAU         CLOUDY    35  32  88 NE5       30.14F
MOSINEE        CLOUDY    34  34 100 NE9       30.16S
MARSHFIELD     CLOUDY    36  33  89 E10       30.13S
WISC RAPIDS    LGT RAIN  37  36  96 NE9       30.17R
STEVENS POINT  LGT RAIN  34  34 100 NE7       30.17R
WAUPACA        LGT RAIN  38  36  92 NE7       30.18R
SHAWANO        CLOUDY    37  34  89 NE14      30.18F
CLINTONVILLE   LGT RAIN  36  34  93 NE10G24   30.18R
WAUTOMA        LGT RAIN  36  35  96 E7        30.17S
$$

WIZ038-039-048-051-250500-
FOX VALLEY

CITY           SKY/WX    TMP DP  RH WIND       PRES   REMARKS
NWS GREEN BAY  LGT RAIN  36  36 100 NE20G25   30.18R FOG
APPLETON       LGT RAIN  36  36 100 NE14G21   30.15R
OSHKOSH        LGT RAIN  36  34  92 NE13      30.17R FOG
FOND DU LAC    CLOUDY    37  33  85 NE13      30.16R
$$

WIZ022-050-052-250500-
EAST CENTRAL WISCONSIN

CITY           SKY/WX    TMP DP  RH WIND       PRES   REMARKS
EPHRAIM        CLOUDY    33  33 100 N12       30.17S
WASHINGTON ISL CLOUDY    33  32  96 N9        30.20R
STURGEON BAY   LGT RAIN  34  32  92 N13       30.18R
MANITOWOC      RAIN      36  34  92 N8        30.18R FOG
SHEBOYGAN      CLOUDY    36  33  89 NE17G23   30.16R
$$

LMZ563-521-522-541>543-250500-
LAKESHORE

STATION/POSITION TIME  TEMP    WIND        PRES    VSBY  WAVE
                       AIR SEA DIR/SP/G                  HT/PER
                 (UTC) (F)     (DEG/KT/KT) (MB)    (MI)  (FT/S)
SHEBOYGAN LKSHOR 0400   36      10/ 16/ 17 1021.7R
KEWAUNEE LKSHORE 0348   36      20/ 12/ 19 1021.2R
NORTHPORT PIER   0340   35     360/ 10/ 12 1023.0R
SISTER BAY LKSHO 0336   34      10/ 12/ 18   N/A
CHAMBERS ISLAND  0340   34     350/ 12/ 16 1022.7R
MENOMINEE LKSHOR 0348   35     360/ 17/ 19 1021.5S
$$




USA.gov is the U.S. government's official web portal to all federal, state and local government web resources and services.